TimeMST,TemperatureF,Dew PointF,Humidity,Sea Level PressureIn,VisibilityMPH,Wind Direction,Wind SpeedMPH,Gust SpeedMPH,PrecipitationIn,Events,Conditions,WindDirDegrees,DateUTC
12:53 AM,23.0,9.0,55,29.82,10.0,WSW,3.5,-,N/A,,Clear,250,2014-02-19 07:53:00
1:53 AM,24.1,10.0,55,29.78,10.0,SSW,5.8,-,N/A,,Clear,210,2014-02-19 08:53:00
2:53 AM,24.1,10.9,57,29.73,10.0,SSW,5.8,-,N/A,,Clear,210,2014-02-19 09:53:00
3:53 AM,27.0,12.0,53,29.67,10.0,SW,8.1,-,N/A,,Clear,230,2014-02-19 10:53:00
4:53 AM,30.9,15.1,52,29.63,10.0,WSW,10.4,17.3,N/A,,Clear,250,2014-02-19 11:53:00
5:53 AM,32.0,16.0,52,29.61,10.0,WSW,15.0,26.5,N/A,,Clear,250,2014-02-19 12:53:00
6:53 AM,30.9,17.1,57,29.60,10.0,WSW,13.8,21.9,N/A,,Clear,250,2014-02-19 13:53:00
7:53 AM,32.0,17.1,54,29.59,10.0,WSW,13.8,25.3,N/A,,Clear,250,2014-02-19 14:53:00
8:53 AM,36.0,18.0,48,29.56,10.0,West,16.1,24.2,N/A,,Clear,260,2014-02-19 15:53:00
9:53 AM,37.0,18.0,46,29.56,10.0,West,18.4,27.6,N/A,,Clear,260,2014-02-19 16:53:00
10:53 AM,39.0,18.0,43,29.53,10.0,WSW,16.1,27.6,N/A,,Clear,250,2014-02-19 17:53:00
11:53 AM,44.1,18.0,35,29.48,10.0,WSW,15.0,28.8,N/A,,Clear,250,2014-02-19 18:53:00
12:53 PM,45.0,19.9,37,29.46,10.0,West,20.7,28.8,N/A,,Clear,260,2014-02-19 19:53:00
1:53 PM,44.1,21.0,40,29.45,10.0,West,10.4,20.7,N/A,,Mostly Cloudy,270,2014-02-19 20:53:00
2:53 PM,43.0,21.0,42,29.46,10.0,West,11.5,-,N/A,,Clear,280,2014-02-19 21:53:00
3:53 PM,43.0,21.0,42,29.47,10.0,North,9.2,-,N/A,,Scattered Clouds,350,2014-02-19 22:53:00
4:53 PM,30.9,19.9,64,29.54,10.0,NNW,13.8,25.3,N/A,,Overcast,340,2014-02-19 23:53:00
5:53 PM,28.0,17.1,63,29.61,10.0,NW,11.5,20.7,N/A,,Overcast,320,2014-02-20 00:53:00
6:53 PM,30.0,1.0,29,29.63,10.0,NW,12.7,20.7,N/A,,Overcast,320,2014-02-20 01:53:00
7:53 PM,28.0,3.9,36,29.67,10.0,NW,6.9,-,N/A,,Mostly Cloudy,310,2014-02-20 02:53:00
8:53 PM,27.0,6.1,41,29.67,10.0,NNW,11.5,18.4,N/A,,Mostly Cloudy,330,2014-02-20 03:53:00
9:53 PM,26.1,1.9,35,29.67,10.0,WNW,9.2,19.6,N/A,,Clear,290,2014-02-20 04:53:00
10:53 PM,25.0,1.9,37,29.68,10.0,NW,10.4,21.9,N/A,,Clear,320,2014-02-20 05:53:00
11:53 PM,24.1,3.9,42,29.67,10.0,WNW,11.5,18.4,N/A,,Clear,290,2014-02-20 06:53:00